カタログに戻る

STARLINK-30321

運用中通信VLEO
NORAD 57679·PAYLOAD·🇺🇸 United States

打ち上げ Aug 22, 2023 から Vandenberg Space Force Base

Loading…

次のパス (今後24時間)

TLE

最新Source: CelesTrak SupGP

元期: Sep 14, 2026, 20:40 UTC

1 57679C 23124S   26257.86159722  .00039369  00000+0  11636-2 0  2573
2 57679  53.1596  45.7594 0001255  85.8086 306.8660 15.34359019    17

AllMySatでSTARLINK-30321をリアルタイム追跡

Download on the App Store